Location: Catacaguana
(10.4120°N, 66.7591°W)
Time: 04:20:09
(UTC+00:00)

H-2A R/B (2) - Pass Details

Date: 27 May 2022
Orbit: 439 x 34387 km, 28.9° (Epoch: 24 June)

Event Time Altitude Azimuth Distance (km) Brightness Sun altitude
Rises 01:04:01 0° 297° (WNW) 2,484 5.8 -31.5°
Reaches altitude 10° 01:05:24 10° 296° (WNW) 1,783 4.8 -31.8°
Enters shadow 01:07:04 36° 294° (WNW) 1,064 3.1 -32.2°
